Погода в Нор Ачине

Армения     40°18′34″N   44°34′52″E
темп.,
°C
ветер,
м/с
пор.,
м/с
влажн.,
%
обл.,
%
осадки,
мм/ч
давл.,
гПа
погр.,
м
17 мая, вт
вт1701:00+10св23670 0.0 101664
04:00+9всв22660 0.0 101658
07:00+10св12590 0.0 1016117
10:00+14юз22490 0.0 1015857
13:00+18юз32340 0.0 10131517
16:00+20юз33310 0.0 10111729
19:00+19юз22373 0.0 1010959
22:00+13св58595 0.0 1013226
18 мая, ср
ср1801:00+11ссв57616 0.0 1014173
04:00+10св35646 0.1 1014131
07:00+11св23615 0.0 1015126
10:00+17ююз22455 0.0 1014950
13:00+20ююз33380 0.0 10121527
16:00+22ююз24330 0.0 10101972
19:00+20ююз33407 0.0 1010915
22:00+16св22515 0.1 101239
19 мая, чт
чт1901:00+13ссв226664 0.4 101340
04:00+13ссв22654 0.4 101421
07:00+14св22645 0.0 101562
10:00+19ююз33460 0.0 1014998
13:00+22ююз35332 0.0 10122250
16:00+24ююз362973 0.0 10092778
19:00+21зсз134099 0.1 1009425
22:00+16св22560 0.4 101142
20 мая, пт
пт2001:00+14всв326761 0.8 101229
04:00+11вюв12726 1.0 101369
07:00+11юв246835 0.2 1015349
10:00+11всв2265100 0.6 1019666
13:00+15св433833 0.3 10191955
16:00+17св33264 0.3 10172149
19:00+15всв56353 0.0 1018874
22:00+10ссв58470 0.0 1021206
21 мая, сб
сб2101:00+8св34530 0.0 1022115
04:00+7св23560 0.0 102288
07:00+8св23520 0.0 1023144
10:00+13ююз32400 0.0 1021975
13:00+17ююз33290 0.0 10191290
16:00+20ююз22220 0.0 10161323
19:00+19юз11280 0.0 1015498
22:00+13св33350 0.0 101741